GGSE 3 DEB, 44043

Orbit data source: Space-Track

GGSE 3 DEB, 44043 is space debris in LEO originally from a launch on Tue, 09 Mar 1965 UTC launched from the Air Force Western Test Range (AFWTR). Debris objects in space refer to the collection of defunct objects orbiting the Earth. Examples of debris include non-operational satellites, rocket bodies, and fragments generated from explosions, collisions, or faulty payload assembly.

Loading next visibility...
Identifier
44043, 1965-016L
Orbit
LEO
Last TLE update
20 hours ago
Origin
Manufacturer
Unknown
Mission
Spacecraft
Bus & Motor
Unknown
Mass
Unknown
Launch date (UTC)
1965-03-09 (60 years ago)
Launch vehicle
Unknown
Launch site
Air Force Western Test Range (AFWTR)
Object type
Payload
Rocket body
Debris
Shape & HBR
Unknown
Radar Cross Section
Small (<0.1 m²)

Expand to show TLE details & history

TLE from 20 hours ago
0 GGSE 3 DEB
1 44043U 65016L   25181.58714505  .00000259  00000-0  19851-3 0  9998
2 44043  70.0766 341.6448 0017908  52.4304 307.8430 14.03684035326400
Epoch: 2025-06-30T14:05Z
TLE epoch observation values (Epoch: 2025-06-30T14:05:29.332Z)
Latitude
0.00004°
Longitude
-148.62222°
Altitude
875.43 km
Speed
7.419 km/s
True Right ascension
22h 46m 34s
True Declination
0° 00' 00"
Sunlit
Object was in daylight at epoch
Visualization orbit readout
Latitude
-11.45012°
Longitude
-154.64906°
Altitude
879.726 km
Speed
7.415 km/s
Apparent Right ascension
22h 45m 44s
Apparent Declination
-67° 55' 17"
Sunlit
Object is in full shadow
Visualization observer readout
Local Sidereal Time
22:11:52
Azimuth
176.663° S
Elevation
-18.027°
Doppler factor
1
Orbital elements
Apogee altitude
892.09 km
Perigee altitude
866.098 km
Semi-major axis
7,257.231 km
Eccentricity
0.00179
Inclination
70.0766°
RAAN
341.6448°
Arg. of periapsis
52.4304°
True anomaly
Unknown
Mean anomaly
307.843°
Eccentric anomaly
Unknown
Mean motion
3.51064 °/min
Orbital period
102.55 mins
BSTAR
0.00019851
Loading maneuver chart data...
Loading SW <> Apogee altitude chart data...
Loading historical data...
Loading historical data...
Loading historical data...
Loading historical data...
Loading historical data...
Loading historical data...
Loading historical data...

GGSE 3 DEB Visibility forecast

Observer location: undefined°, undefined°

Span
Click to sort rows by Start time (UTC) header in descending order
Start Az.
Max El. time (UTC)
Max El. Az.
Max El.
End time (UTC)
End Az.
7 mins2025-07-01 10:44:24.624Z138.231° SSE2025-07-01 10:47:24.624Z104.699° ESE17.361°2025-07-01 10:51:24.624Z59.773° ENE
9 mins2025-07-01 12:28:24.624Z222.365° SW2025-07-01 12:32:24.624Z309.02° NW41.047°2025-07-01 12:37:24.624Z16.751° NNE
10 mins2025-07-01 21:26:24.624Z341.271° N2025-07-01 21:31:24.624Z86.01° E43.284°2025-07-01 21:36:24.624Z148.09° SSE
5 mins2025-07-01 23:13:24.624Z284.278° WNW2025-07-01 23:15:24.624Z261.607° W15.039°2025-07-01 23:18:24.624Z229.113° WSW
|